This demonstration page uses our WeatherBlox Daily Observations layout. Learn more.

Left ArrowRight Arrow

Hourly Observations for August 7, 2020

Temp ( °F °C ) Dew Point ( °F °C ) Humidity (%) Winds ( mph kmh ) Pressure ( in mb ) Visibility ( mi km ) Precip ( " mm )
12:53 am 00:53 Clear 62 16.7 60 15.6 93 93 N N/A 30.09 1019 10 16.0934 N/A
1:53 am 01:53 Clear 60 15.6 59 15 96 96 N N/A 30.09 1019 10 16.0934 N/A
2:53 am 02:53 Clear 60 15.6 58 14.4 93 93 N N/A 30.1 1019 10 16.0934 N/A
3:53 am 03:53 Clear 59 15 57 13.9 93 93 N N/A 30.1 1019 10 16.0934 N/A
4:53 am 04:53 Partly Cloudy 59 15 58 14.4 96 96 N N/A 30.1 1019 9 14.48406 N/A
5:53 am 05:53 Cloudy 61 16.1 59 15 93 93 N N/A 30.11 1020 10 16.0934 N/A
6:53 am 06:53 Cloudy 60 15.6 58 14.4 93 93 N N/A 30.12 1020 10 16.0934 N/A
7:53 am 07:53 Sunny 61 16.1 58 14.4 90 90 N N/A 30.14 1021 10 16.0934 N/A
8:53 am 08:53 Mostly Sunny 67 19.4 59 15 76 76 NE 5 7 30.15 1021 10 16.0934 N/A
9:53 am 09:53 Cloudy 69 20.6 60 15.6 73 73 N 5 7 30.15 1021 10 16.0934 N/A
10:53 am 10:53 Partly Cloudy 73 22.8 61 16.1 66 66 NNE 6 9 30.16 1021 10 16.0934 N/A
11:53 am 11:53 Sunny 77 25 60 15.6 56 56 ENE 6 9 30.16 1021 10 16.0934 N/A
12:53 pm 12:53 Mostly Sunny 78 25.6 59 15 52 52 VRB 5 7 30.15 1021 10 16.0934 N/A
1:53 pm 13:53 Mostly Cloudy 78 25.6 58 14.4 50 50 NNE 5 7 30.15 1021 10 16.0934 N/A
2:53 pm 14:53 Mostly Sunny 79 26.1 59 15 50 50 N 8 13 30.14 1021 10 16.0934 N/A
3:53 pm 15:53 Sunny 81 27.2 59 15 47 47 NNE 5 7 30.14 1021 10 16.0934 N/A
4:53 pm 16:53 Mostly Cloudy 79 26.1 59 15 50 50 NNE 3 6 30.13 1020 10 16.0934 N/A
5:53 pm 17:53 Sunny 79 26.1 59 15 50 50 NNW 6 9 30.12 1020 10 16.0934 N/A
6:53 pm 18:53 Sunny 76 24.4 60 15.6 58 58 N 3 6 30.11 1020 10 16.0934 N/A
7:53 pm 19:53 Mostly Sunny 76 24.4 59 15 56 56 NNW 6 9 30.12 1020 10 16.0934 N/A
8:53 pm 20:53 Clear 70 21.1 59 15 68 68 N 5 7 30.13 1020 10 16.0934 N/A
9:53 pm 21:53 Clear 66 18.9 59 15 78 78 NNW 5 7 30.14 1021 10 16.0934 N/A
10:53 pm 22:53 Clear 62 16.7 60 15.6 93 93 N N/A 30.16 1021 10 16.0934 N/A
11:53 pm 23:53 Clear 61 16.1 59 15 93 93 N N/A 30.16 1021 10 16.0934 N/A

Powered by AerisWeather